Date String (YYYY-MM-DD hh:mm:ss) UTC,Instrument flags,Ambient pressure (hPa),Sample flow (lpm),Bypass flow (lpm),Sample temperature (°C),Ambient temperature (°C),ASC tube jacket temperature (°C),LED temperature (°C),Box temperature (°C),Sample RH (%),Span deviation,Mass concentration (μg/m³),Mass concentration (μg/m³),Mass concentration (μg/m³)
DateTimeUTC,F1_M11,P_M11,Q1_M11,Q2_M11,T1_M11,T2_M11,T3_M11,T4_M11,T5_M11,U1_M11,ZSPAN_M11,X0_M11,X2_M11,X1_M11
2022-05-30 13:00:00,,0812.9,4.99,0.00,26.6,25.2,00.0,35.6,28.4,12.8,0000.0,0001.26,0000.58,0000.25
2022-05-30 13:01:00,,0812.9,5.01,0.00,26.6,25.2,00.0,35.6,28.4,12.9,0000.0,0001.25,0000.57,0000.24
2022-05-30 13:02:00,,0813.1,5.01,0.00,26.6,25.1,00.0,35.6,28.4,13.1,0000.0,0001.22,0000.54,0000.24
2022-05-30 13:03:00,,0813.1,5.00,0.00,26.6,25.1,00.0,35.6,28.4,13.2,0000.0,0001.31,0000.52,0000.23
2022-05-30 13:04:00,,0813.0,5.00,0.00,26.6,25.0,00.0,35.6,28.3,13.6,0000.0,0001.33,0000.52,0000.24
2022-05-30 13:05:00,,0813.0,5.01,0.00,26.5,25.0,00.0,35.6,28.4,13.5,0000.0,0001.35,0000.54,0000.24
2022-05-30 13:06:00,,0813.0,4.99,0.00,26.5,25.0,00.0,35.6,28.3,13.4,0000.0,0001.28,0000.52,0000.24
2022-05-30 13:07:00,,0813.0,4.99,0.00,26.5,25.0,00.0,35.5,28.3,13.8,0000.0,0001.28,0000.52,0000.23
2022-05-30 13:08:00,,0813.0,5.00,0.00,26.5,25.0,00.0,35.5,28.3,13.3,0000.0,0001.13,0000.50,0000.22
2022-05-30 13:09:00,,0813.0,5.00,0.00,26.5,25.0,00.0,35.5,28.3,12.7,0000.0,0001.05,0000.46,0000.21
2022-05-30 13:10:00,,0813.0,4.99,0.00,26.5,25.0,00.0,35.5,28.3,12.6,0000.0,0001.09,0000.47,0000.21
2022-05-30 13:11:00,,0813.2,5.01,0.00,26.5,25.0,00.0,35.5,28.3,12.9,0000.0,0001.76,0000.46,0000.21
2022-05-30 13:12:00,,0813.2,5.00,0.00,26.5,25.0,00.0,35.5,28.3,13.0,0000.0,0001.82,0000.44,0000.21
2022-05-30 13:13:00,,0812.9,5.00,0.00,26.4,25.0,00.0,35.5,28.3,12.9,0000.0,0001.85,0000.45,0000.21
2022-05-30 13:14:00,,0813.1,5.01,0.00,26.4,25.0,00.0,35.4,28.2,13.0,0000.0,0001.87,0000.45,0000.22
2022-05-30 13:15:00,,0813.1,5.00,0.00,26.4,24.9,00.0,35.4,28.2,13.3,0000.0,0001.78,0000.44,0000.22
2022-05-30 13:16:00,,0812.8,5.00,0.00,26.4,24.9,00.0,35.4,28.2,12.7,0000.0,0001.79,0000.44,0000.22
2022-05-30 13:17:00,,0812.9,5.00,0.00,26.4,24.9,00.0,35.4,28.2,12.6,0000.0,0001.85,0000.47,0000.22
2022-05-30 13:18:00,,0812.9,4.99,0.00,26.4,24.9,00.0,35.4,28.2,12.2,0000.0,0002.01,0000.50,0000.23
2022-05-30 13:19:00,,0813.0,5.00,0.00,26.4,24.9,00.0,35.4,28.2,12.0,0000.0,0002.02,0000.52,0000.24
2022-05-30 13:20:00,,0813.0,5.00,0.00,26.3,24.9,00.0,35.4,28.2,12.0,0000.0,0002.02,0000.54,0000.25
2022-05-30 13:21:00,,0813.0,5.00,0.00,26.3,24.9,00.0,35.4,28.2,12.8,0000.0,0001.94,0000.53,0000.26
2022-05-30 13:22:00,,0813.1,5.00,0.00,26.3,24.8,00.0,35.3,28.1,12.9,0000.0,0001.14,0000.50,0000.26
2022-05-30 13:23:00,,0813.1,5.00,0.00,26.3,24.8,00.0,35.3,28.1,13.3,0000.0,0001.35,0000.52,0000.27
2022-05-30 13:24:00,,0813.2,5.00,0.00,26.3,24.8,00.0,35.3,28.1,13.4,0000.0,0001.74,0000.55,0000.27
2022-05-30 13:25:00,,0813.2,4.99,0.00,26.3,24.8,00.0,35.3,28.1,13.5,0000.0,0001.67,0000.56,0000.28
2022-05-30 13:26:00,,0813.2,5.01,0.00,26.3,24.9,00.0,35.3,28.1,13.2,0000.0,0001.90,0000.57,0000.28
2022-05-30 13:27:00,,0813.3,5.00,0.00,26.3,24.9,00.0,35.3,28.1,13.0,0000.0,0002.90,0000.59,0000.28
2022-05-30 13:28:00,,0813.3,5.00,0.00,26.3,24.9,00.0,35.3,28.1,13.2,0000.0,0002.88,0000.58,0000.28
2022-05-30 13:29:00,,0813.3,5.00,0.00,26.3,24.9,00.0,35.3,28.1,13.0,0000.0,0002.75,0000.58,0000.29
2022-05-30 13:30:00,,0813.3,5.00,0.00,26.3,24.9,00.0,35.3,28.1,12.7,0000.0,0003.81,0000.62,0000.29
2022-05-30 13:31:00,,0813.3,4.99,0.00,26.3,24.9,00.0,35.3,28.1,12.0,0000.0,0004.66,0000.64,0000.29
2022-05-30 13:32:00,,0813.3,5.00,0.00,26.2,24.9,00.0,35.2,28.1,12.0,0000.0,0004.73,0000.67,0000.29
2022-05-30 13:33:00,,0813.4,5.01,0.00,26.2,24.9,00.0,35.2,28.1,11.7,0000.0,0004.90,0000.72,0000.30
2022-05-30 13:34:00,,0813.4,5.00,0.00,26.2,25.0,00.0,35.2,28.1,12.2,0000.0,0004.66,0000.70,0000.30
2022-05-30 13:35:00,,0813.3,4.99,0.00,26.3,25.0,00.0,35.2,28.2,12.3,0000.0,0004.32,0000.70,0000.30
2022-05-30 13:36:00,,0813.3,4.99,0.00,26.3,25.0,00.0,35.2,28.2,12.0,0000.0,0004.32,0000.70,0000.30
2022-05-30 13:37:00,,0813.4,5.01,0.00,26.3,25.0,00.0,35.2,28.2,12.4,0000.0,0004.08,0000.69,0000.31
2022-05-30 13:38:00,,0813.4,5.01,0.00,26.3,25.0,00.0,35.2,28.2,13.1,0000.0,0003.17,0000.71,0000.31
2022-05-30 13:39:00,,0813.5,5.00,0.00,26.3,25.1,00.0,35.2,28.2,12.7,0000.0,0003.16,0000.70,0000.32
2022-05-30 13:40:00,,0813.4,4.99,0.00,26.3,25.1,00.0,35.2,28.2,13.0,0000.0,0003.25,0000.73,0000.33
2022-05-30 13:41:00,,0813.4,5.00,0.00,26.3,25.1,00.0,35.2,28.2,13.7,0000.0,0002.17,0000.68,0000.33
2022-05-30 13:42:00,,0813.4,5.00,0.00,26.3,25.1,00.0,35.2,28.2,14.5,0000.0,0001.54,0000.64,0000.33
2022-05-30 13:43:00,,0813.4,5.01,0.00,26.3,25.1,00.0,35.2,28.2,14.7,0000.0,0003.10,0000.63,0000.33
2022-05-30 13:44:00,,0813.5,5.00,0.00,26.3,25.1,00.0,35.2,28.2,14.1,0000.0,0002.97,0000.62,0000.33
2022-05-30 13:45:00,,0813.3,5.00,0.00,26.3,25.1,00.0,35.2,28.2,11.8,0000.0,0002.98,0000.63,0000.34
2022-05-30 13:46:00,,0813.3,4.98,0.00,26.3,25.1,00.0,35.2,28.2,11.7,0000.0,0003.08,0000.63,0000.34
2022-05-30 13:47:00,,0813.2,5.00,0.00,26.3,25.1,00.0,35.2,28.2,11.6,0000.0,0003.24,0000.67,0000.34
2022-05-30 13:48:00,,0813.0,5.00,0.00,26.3,25.0,00.0,35.2,28.2,11.1,0000.0,0003.27,0000.68,0000.35
2022-05-30 13:49:00,,0813.1,4.98,0.00,26.3,25.0,00.0,35.2,28.1,11.1,0000.0,0003.23,0000.67,0000.35
2022-05-30 13:50:00,,0813.1,5.00,0.00,26.3,25.0,00.0,35.2,28.1,10.7,0000.0,0003.30,0000.69,0000.35
2022-05-30 13:51:00,,0813.1,4.99,0.00,26.2,24.9,00.0,35.2,28.1,11.2,0000.0,0003.22,0000.66,0000.35
2022-05-30 13:52:00,,0813.0,4.99,0.00,26.2,24.9,00.0,35.2,28.1,11.2,0000.0,0003.31,0000.69,0000.35
2022-05-30 13:53:00,,0813.0,5.00,0.00,26.2,24.9,00.0,35.2,28.1,11.0,0000.0,0003.10,0000.75,0000.36
2022-05-30 13:54:00,,0813.0,5.00,0.00,26.2,24.9,00.0,35.2,28.1,11.1,0000.0,0001.67,0000.74,0000.36
2022-05-30 13:55:00,,0813.0,5.00,0.00,26.2,24.9,00.0,35.2,28.1,11.5,0000.0,0001.73,0000.76,0000.37
2022-05-30 13:56:00,,0813.0,5.00,0.00,26.2,24.8,00.0,35.2,28.0,11.7,0000.0,0001.81,0000.78,0000.38
2022-05-30 13:57:00,,0812.9,5.01,0.00,26.2,24.8,00.0,35.1,28.0,11.5,0000.0,0001.90,0000.82,0000.38
2022-05-30 13:58:00,,0812.9,5.00,0.00,26.1,24.8,00.0,35.1,28.0,11.3,0000.0,0001.83,0000.81,0000.39
2022-05-30 13:59:00,,0812.9,5.00,0.00,26.1,24.8,00.0,35.1,28.0,11.2,0000.0,0001.87,0000.82,0000.39
